Hall Beach,

8:06 AM EDT on July 28, 2017 (GMT -0400)
Hall Beach

Weather History for CYUX - October, 2013

Change the Weather History Date:

Wednesday, October 23, 2013

  Actual Average Record
Temperature  
Mean Temperature 12 °F -  
Max Temperature 21 °F 6 °F 33 °F (2010)
Min Temperature 3 °F -8 °F -11 °F (2014)
Degree Days  
Heating Degree Days 53    
Moisture  
Dew Point 10 °F    
Average Humidity 92    
Maximum Humidity 100    
Minimum Humidity 85    
Precipitation  
Precipitation 0.00 in 0.02 in - ()
Sea Level Pressure  
Sea Level Pressure 30.03 in    
Wind  
Wind Speed 10 mph ()    
Max Wind Speed 14 mph    
Max Gust Speed -    
Visibility 11.2 miles    
Events      
Averages and records for this station are not official NWS values.
T = Trace of Precipitation, MM = Missing Value Source: Averaged Metar Reports

Daily Weather History Graph

Daily Weather History Graph

Search for Another Location

Airport or City:

Trip Planner

Search our weather history database for the weather conditions in past years. The results will help you decide how hot, cold, wet, or windy it might be!

Date:

Astronomy

Oct. 23, 2013 Rise Set
Actual Time 9:05 AM EDT 5:11 PM EDT
Civil Twilight 8:02 AM EDT 6:13 PM EDT
Nautical Twilight 6:55 AM EDT 7:21 PM EDT
Astronomical Twilight 5:48 AM EDT 8:27 PM EDT
Moon 6:48 PM EDT (10/23) 3:16 PM EDT (10/23)
Length of Visible Light 10h 11m
Length of Day
8h 05m
Waning Gibbous, 79% of the Moon is Illuminated
Oct 23
Waning Gibbous
Oct 26
Last Quarter
Nov 3
New
Nov 10
First Quarter
Nov 17
Full

Hourly Weather History & Observations

Time (EDT) Temp. Windchill Dew Point Humidity Pressure Visibility Wind Dir Wind Speed Gust Speed Precip Events Conditions
12:00 AM 21.2 °F 8.9 °F 19.4 °F 93% 30.06 in 9.0 mi North 12.7 mph - N/A   Overcast
12:01 AM 21.2 °F 8.9 °F 19.4 °F 93% 30.06 in 9.0 mi North 12.7 mph - N/A   Overcast
1:00 AM 17.6 °F 5.0 °F 17.6 °F 100% 30.05 in 9.0 mi NNW 11.5 mph - N/A   Mostly Cloudy
1:13 AM 15.8 °F 2.7 °F 15.8 °F 100% 30.06 in 9.0 mi NNW 11.5 mph - N/A   Mostly Cloudy
1:40 AM 14.0 °F 2.0 °F 12.2 °F 93% 30.05 in 9.0 mi NNW 9.2 mph - N/A   Overcast
2:00 AM 12.2 °F -1.8 °F 10.4 °F 92% 30.05 in 9.0 mi NNW 11.5 mph - N/A   Overcast
3:00 AM 12.2 °F -2.5 °F 10.4 °F 92% 30.06 in 9.0 mi NNW 12.7 mph - N/A   Overcast
3:25 AM 10.4 °F -4.1 °F 8.6 °F 92% 30.06 in 9.0 mi NNW 11.5 mph - N/A   Scattered Clouds
3:37 AM 8.6 °F -5.5 °F 6.8 °F 92% 30.06 in 9.0 mi NNW 10.4 mph - N/A   Mostly Cloudy
4:00 AM 10.4 °F -4.1 °F 8.6 °F 92% 30.05 in 9.0 mi NNW 11.5 mph - N/A   Overcast
4:14 AM 12.2 °F -1.8 °F 10.4 °F 92% 30.05 in 9.0 mi NW 11.5 mph - N/A   Overcast
4:57 AM 14.0 °F 0.5 °F 12.2 °F 93% 30.05 in 9.0 mi NW 11.5 mph - N/A   Overcast
5:00 AM 14.0 °F 0.5 °F 12.2 °F 93% 30.05 in 9.0 mi NW 11.5 mph - N/A   Overcast
5:01 AM 14.0 °F 0.5 °F 12.2 °F 93% 30.05 in 9.0 mi NW 11.5 mph - N/A   Overcast
5:05 AM 12.2 °F -1.8 °F 10.4 °F 92% 30.05 in 9.0 mi NW 11.5 mph - N/A   Overcast
5:46 AM 15.8 °F 2.1 °F 14.0 °F 93% 30.04 in 5.0 mi NNW 12.7 mph - N/A   Overcast
5:58 AM 15.8 °F 3.4 °F 14.0 °F 93% 30.04 in 6.0 mi NW 10.4 mph - N/A   Overcast
6:00 AM 15.8 °F 3.4 °F 14.0 °F 93% 30.04 in 7.0 mi NW 10.4 mph - N/A   Overcast
7:00 AM 12.2 °F -0.2 °F 10.4 °F 92% 30.04 in 9.0 mi NW 9.2 mph - N/A   Mostly Cloudy
7:09 AM 10.4 °F -2.4 °F 8.6 °F 92% 30.04 in 9.0 mi NW 9.2 mph - N/A   Scattered Clouds
7:40 AM 8.6 °F -5.5 °F 6.8 °F 92% 30.04 in 9.0 mi NW 10.4 mph - N/A   Mostly Cloudy
8:00 AM 10.4 °F -4.1 °F 8.6 °F 92% 30.04 in 15.0 mi NW 11.5 mph - N/A   Overcast
9:00 AM 10.4 °F -2.4 °F 8.6 °F 92% 30.03 in 15.0 mi NW 9.2 mph - N/A   Mostly Cloudy
10:00 AM 8.6 °F -4.7 °F 5.0 °F 85% 30.04 in 15.0 mi NW 9.2 mph - N/A   Mostly Cloudy
11:00 AM 6.8 °F -7.8 °F 5.0 °F 92% 30.03 in 15.0 mi WNW 10.4 mph - N/A   Scattered Clouds
11:49 AM 10.4 °F -2.4 °F 8.6 °F 92% 30.02 in 15.0 mi NNW 9.2 mph - N/A   Mostly Cloudy
12:00 PM 12.2 °F 1.7 °F 10.4 °F 92% 30.02 in 15.0 mi NW 6.9 mph - N/A   Mostly Cloudy
1:00 PM 14.0 °F 6.5 °F 12.2 °F 93% 30.01 in 15.0 mi WNW 4.6 mph - N/A   Mostly Cloudy
2:00 PM 17.6 °F 5.7 °F 15.8 °F 93% 30.01 in 15.0 mi NNW 10.4 mph - N/A   Overcast
3:00 PM 15.8 °F 1.4 °F 14.0 °F 93% 30.01 in 15.0 mi NW 13.8 mph - N/A   Mostly Cloudy
4:00 PM 14.0 °F 1.2 °F 14.0 °F 100% 30.01 in 15.0 mi NW 10.4 mph - N/A   Mostly Cloudy
4:39 PM 12.2 °F -1.0 °F 10.4 °F 92% 30.01 in 15.0 mi NW 10.4 mph - N/A   Mostly Cloudy
5:00 PM 10.4 °F -2.4 °F 8.6 °F 92% 30.01 in 15.0 mi WNW 9.2 mph - N/A   Mostly Cloudy
6:00 PM 6.8 °F -4.8 °F 3.2 °F 85% 30.00 in 15.0 mi NW 6.9 mph - N/A   Mostly Cloudy
7:00 PM 6.8 °F -6.9 °F 5.0 °F 92% 30.00 in 15.0 mi WNW 9.2 mph - N/A   Mostly Cloudy
7:22 PM 6.8 °F -6.9 °F 5.0 °F 92% 29.99 in 15.0 mi WNW 9.2 mph - N/A   Ice Crystals
8:00 PM 6.8 °F -7.8 °F 3.2 °F 85% 29.99 in 15.0 mi WNW 10.4 mph - N/A   Ice Crystals
9:00 PM 5.0 °F -10.0 °F 3.2 °F 92% 29.97 in 9.0 mi NW 10.4 mph - N/A   Clear
10:00 PM 3.2 °F -12.2 °F 1.4 °F 92% 29.96 in 9.0 mi NW 10.4 mph - N/A   Clear
11:00 PM 3.2 °F -11.3 °F -0.4 °F 85% 29.96 in 9.0 mi NW 9.2 mph - N/A   Clear